Location: Columbia
(38.9520°N, 92.3340°W)
Time: 00:08:41
(UTC-05:00)

Cosmos 1603 - Visible Passes

Search period start: 26 October 2014 00:00
Search period end: 04 November 2014 23:00
Orbit: 830 x 861 km, 71.0° (Epoch: 24 October)

Date Brightness Start Highest point End Pass type
(mag) Time Alt. Az. Time Alt. Az. Time Alt. Az.
26 Oct 4.5 06:00:44 10° NNW 06:06:19 52° ENE 06:11:48 10° SE visible
26 Oct 5.1 19:09:40 10° SE 19:13:15 17° E 19:14:33 16° E visible
26 Oct 4.1 20:51:07 10° SW 20:56:33 61° WNW 20:56:33 61° WNW visible
27 Oct 4.5 05:46:56 10° NNW 05:52:29 51° ENE 05:57:58 10° SE visible
27 Oct 5.1 18:55:59 10° SE 18:59:27 17° E 19:02:37 11° ENE visible
27 Oct 4.0 20:37:17 10° SSW 20:42:57 64° WNW 20:44:37 45° N visible
28 Oct 4.6 05:33:07 10° NNW 05:38:39 49° ENE 05:44:06 10° SE visible
28 Oct 5.2 18:42:18 10° SE 18:45:39 16° E 18:49:01 10° ENE visible
28 Oct 4.0 20:23:27 10° SSW 20:29:08 66° WNW 20:32:30 25° N visible
28 Oct 6.6 22:13:17 10° WNW 22:14:25 11° NW 22:14:29 11° NW visible
29 Oct 4.6 05:19:19 10° NNW 05:24:50 48° ENE 05:30:15 10° SE visible
29 Oct 4.9 07:04:17 10° NW 07:08:33 22° W 07:12:48 10° SSW visible
29 Oct 4.0 20:09:37 10° SSW 20:15:18 68° WNW 20:20:09 15° NNE visible
29 Oct 6.6 21:59:07 10° WNW 22:00:33 11° NW 22:02:00 10° NNW visible
30 Oct 4.6 05:06:50 17° N 05:11:00 46° ENE 05:16:24 10° SE visible
30 Oct 4.8 06:50:24 10° NW 06:54:45 23° W 06:59:04 10° SSW visible
30 Oct 4.0 19:55:47 10° SSW 20:01:29 70° WNW 20:07:14 10° NNE visible
30 Oct 6.5 21:45:01 10° WNW 21:46:42 11° NW 21:48:23 10° NNW visible
31 Oct 4.6 04:54:57 31° NNE 04:57:10 45° ENE 05:02:32 10° SE visible
31 Oct 4.7 06:36:58 12° NW 06:40:57 24° W 06:45:20 10° SSW visible
31 Oct 3.9 19:41:57 10° SSW 19:47:40 72° WNW 19:53:25 10° NNE visible
31 Oct 6.5 21:30:57 10° WNW 21:32:51 12° NW 21:34:45 10° NNW visible
01 Nov 4.7 04:43:09 43° ENE 04:43:20 44° ENE 04:48:41 10° SE visible
01 Nov 4.7 06:25:10 20° WNW 06:27:08 25° WSW 06:31:35 10° SSW visible
01 Nov 3.9 19:28:07 10° SSW 19:33:50 75° WNW 19:39:36 10° NNE visible
01 Nov 6.5 21:16:54 10° WNW 21:18:59 12° NW 21:21:05 10° NNW visible
02 Nov 5.2 03:31:22 32° ESE 03:31:22 32° ESE 03:34:49 10° SE visible
02 Nov 4.6 05:13:23 25° WSW 05:13:23 25° WSW 05:17:50 10° SSW visible
02 Nov 3.9 18:14:17 10° SSW 18:20:00 77° WNW 18:25:47 10° NNE visible
02 Nov 6.5 20:02:52 10° WNW 20:05:08 12° NW 20:07:24 10° NNW visible
03 Nov 5.9 03:19:33 17° SE 03:19:33 17° SE 03:20:57 10° SE visible
03 Nov 5.0 05:01:33 21° SW 05:01:33 21° SW 05:04:05 10° SSW visible
03 Nov 3.9 18:00:27 10° SSW 18:06:11 79° WNW 18:11:57 10° NNE visible
03 Nov 6.4 19:48:51 10° WNW 19:51:16 13° NW 19:53:42 10° NNW visible
04 Nov 5.7 04:49:39 13° SSW 04:49:39 13° SSW 04:50:20 10° SSW visible
04 Nov 3.9 17:46:37 10° SSW 17:52:21 81° WNW 17:58:08 10° NNE visible
04 Nov 6.4 19:34:51 10° WNW 19:37:25 13° NW 19:39:59 10° NNW visible
